Regional Weather Roundup
Issued by NWS Wakefield, VA

Home | Current Version | Previous Version | Text Only | Print | Product List | Glossary On
Versions: 1 2 3 4 5 6 7 8 9 10 11 12 13 14 15 16 17 18 19 20 21 22 23 24 25 26 27 28 29 30 31 32 33 34 35 36 37 38 39 40 41 42 43 44 45 46 47 48 49 50
000
ASUS41 KAKQ 262014
RWRAKQ

REGIONAL WEATHER ROUNDUP
NATIONAL WEATHER SERVICE WAKEFIELD VA
400 PM EDT THU MAR 26 2015

Note: "fair" indicates few or no clouds below 12,000 feet with no
significant weather and/or obstructions to visibility. * = Denotes
station may not report precipitation (e.g., rain,snow,etc.),
thunder or fog.

VAZ042-051-052>054-056-262100-
NORTHERN VIRGINIA

CITY           SKY/WX    TMP DP  RH WIND       PRES   REMARKS
WASH NATIONAL  MOSUNNY   75  57  53 SW17G25   29.65F
DULLES         MOSUNNY   74  54  49 S17G24    29.62F
FORT BELVOIR   SUNNY     73  57  57 S9G17     29.65F
QUANTICO       MOSUNNY   68  53  58 SW14G23   29.66F
FREDERICKSBRG* SUNNY     77  56  49 S21       29.65F
STAFFORD*      SUNNY     74  54  49 S16G22    29.69F
WARRENTON      SUNNY     74  61  64 S12       29.65F
CULPEPER*      SUNNY     73  57  56 SW15      29.65F
MANASSAS*      SUNNY     73  55  53 SW13G20   29.64F
LEESBURG*      SUNNY     73  59  60 S22G31    29.62F
WINCHESTER     PTSUNNY   73  48  40 S18       29.59F
FRONT ROYAL*   FAIR      73  54  49 S7        29.58S
LURAY*         FAIR      81  55  41 SW12G17   29.60F
$$

VAZ048-049-060>072-079>083-262100-
CENTRAL AND SOUTH CENTRAL VIRGINIA

CITY           SKY/WX    TMP DP  RH WIND       PRES   REMARKS
RICHMOND       CLOUDY    74  60  61 S15       29.71S
CHESTERFIELD*  FAIR      79  54  41 SW13      29.72F
PETERSBURG*    MOSUNNY   77  54  45 SW10G20   29.73F
HANOVER        SUNNY     77  52  41 S16G25    29.71F
TAPPAHANNOCK*  PTSUNNY   73  56  55 S10G17    29.70F
QUINTON*       FAIR      72  61  68 S10G23    29.72S
CHARLOTTSVILLE PTSUNNY   75  55  49 S20       29.66F
GORDONSVILLE*  FAIR      73  56  53 SW17G23   29.66F
ORANGE*        SUNNY     73  55  53 S12G23    29.67F
LOUISA*        MOSUNNY   75  55  50 SW13G20   29.67F
BUMPASS*       FAIR      74  54  49 MISG      29.68F
FARMVILLE*     MOSUNNY   76  55  48 SW9G25    29.69F
CREWE*         FAIR      76  53  45 MISG      29.71F
FORT PICKETT*  FAIR      75  56  52 S14G26    29.72F
CHASE CITY*    FAIR      75  58  55 SW6       29.74F
CLARKSVILLE*   FAIR      73  54  49 SW10G22   29.74F
SOUTH HILL*    MOSUNNY   73  57  57 SW12      29.80F
LAWRENCEVILLE* FAIR      74  57  55 SW15G22   29.74F
EMPORIA*       PTSUNNY   70  61  73 S6        29.76F
$$

VAZ088>098-262100-
SOUTHEAST VIRGINIA

CITY           SKY/WX    TMP DP  RH WIND       PRES   REMARKS
NORFOLK        LGT RAIN  67  64  90 S15       29.76F FOG
VIRGINIA BEACH CLOUDY    74  63  68 S18G30    29.76F
NORFOLK NAVAL  DRIZZLE   68  62  81 SW15G21   29.78S FOG
WEST POINT*    MOSUNNY   73  58  59 S12G20    29.74S
SALUDA*        CLOUDY    67  62  85 S6        29.72F
NEWPORT NEWS   CLOUDY    70  61  73 S15       29.75F
LANGLEY AFB    CLOUDY    65  61  86 S8        29.75F
FORT EUSTIS    CLOUDY    66  65  98 S12       29.73F
WILLIAMSBURG*  MOSUNNY   72  63  73 S7        29.75S
HR EXEC AP*    CLOUDY    64  61  88 S7        29.78F
FRANKLIN*      CLOUDY    67  59  74 S10       29.77S
WAKEFIELD      CLOUDY    72  59  63 SW9G17    29.74F
$$

VAZ020-022-025-037-045-262100-
WEST CENTRAL AND SOUTHWEST VIRGINIA

CITY           SKY/WX    TMP DP  RH WIND       PRES   REMARKS
STAUNTON*      MOSUNNY   75  53  46 S15       29.65F
WAYNESBORO*    FAIR      72  54  52 S14G24    29.66F
HOT SPRINGS VA CLOUDY    62  46  55 W20G28    29.74F
LYNCHBURG      MOSUNNY   72  56  57 SW15G23   29.72F
DANVILLE       MOSUNNY   72  56  57 SW18G28   29.75F
SOUTH BOSTON*  FAIR      74  54  50 MISG      29.74F
MARTINSVILLE   PTSUNNY   73  54  52 W8G16     29.77F
ROANOKE        PTSUNNY   72  53  51 SE13      29.71F
BLACKSBURG     CLOUDY    67  49  52 W10G23    29.77F
DUBLIN*        CLOUDY    68  53  58 W18       29.77F
MARION*        PTSUNNY   67  53  61 W14G20    29.79F
HILLSVILLE*    CLOUDY    65  54  67 S8        29.78F
RICHLANDS*     FAIR      65  51  59 SW15G24   29.75F
WISE*          PTSUNNY   68  46  45 SW12G21   29.77F
ABINGDON*      PTSUNNY   70  54  57 W10       29.76F
$$

MDZ021>025-VAZ099-100-262100-
SOUTHERN MARYLAND AND THE DELMARVA PENINSULA

CITY           SKY/WX    TMP DP  RH WIND       PRES   REMARKS
PATUXENT RIVER PTSUNNY   70  59  68 S16G22    29.69F
BAY BRIDGE APT   N/A     68  59  73 SE15G26   29.67F
LEONARDTOWN    MOSUNNY   72  59  64 S9G21     29.69F
DOVER          CLOUDY    65  65 100 S17G24    29.66F
GEORGETOWN     LGT RAIN  64  61  90 SW14      29.74F
EASTON         MOSUNNY   68  63  83 S16G30    29.73F
CAMBRIDGE      PTSUNNY   63  59  88 S8        29.69F
SALISBURY      CLOUDY    65  62  90 S17       29.73F
OCEAN CITY     CLOUDY    53  51  93 SW13G23   29.77F
WALLOPS ISLAND CLOUDY    54  53  97 SW16      29.78F
ACCOMACK*      RAIN      61  57  88 S10G22    29.77S
$$

NCZ012>017-030>032-262100-
NORTH CENTRAL AND EASTERN NORTH CAROLINA

CITY           SKY/WX    TMP DP  RH WIND       PRES   REMARKS
ROANOKE RAPIDS CLOUDY    70  61  73 S9G16     29.76F
RALEIGH        PTSUNNY   72  57  59 SW18G26   29.78F
ELIZABETH CITY MOSUNNY   74  59  59 S23G35    29.77F
AHOSKIE*       PTSUNNY   69  61  76 S5        29.78F
EDENTON*       HVY RAIN  65  62  88 W13G21    29.81R
CURRITUCK*     MOSUNNY   75  60  60 S16G29    29.77F
KILL DEVIL HLS MOSUNNY   70  62  77 S15G29    29.81S
MANTEO         MOSUNNY   64  59  82 S24       29.82F
CAPE HATTERAS  PTSUNNY   67  62  84 S23G32    29.86F
TARBORO*       CLOUDY    73  62  68 SW6       29.79F
GOLDSBORO      SUNNY     75  67  76 SW22      29.79F
WASHINGTON     MOSUNNY   71  64  77 SW12      29.81F
GREENVILLE     MOSUNNY   72  61  68 SW8       29.83F
NEW BERN       PTSUNNY   76  59  55 S12G23    29.83F
WILMINGTON     MOSUNNY   76  56  49 SW15G25   29.86F
$$

VAZ048-262100-
ELSEWHERE

CITY           SKY/WX    TMP DP  RH WIND       PRES   REMARKS
HARRISBURG PA  PTSUNNY   67  54  63 SE14G21   29.59F
BALTIMORE      MOSUNNY   72  55  55 S15G24    29.63F
ANNAPOLIS      MOSUNNY   61  56  83 S15G28    29.66F
ANDREWS AFB    MOSUNNY   73  58  60 S20G25    29.65F
PHILADELPHIA   CLOUDY    65  59  81 S17G25    29.67F
HENDERSON NC   PTSUNNY   74  53  48 SW14G22   29.76S
GREENSBORO     PTSUNNY   72  55  55 SW20G25   29.76F
ROCKY MOUNT    PTSUNNY   73  58  59 SW17G25   29.79F
$$

VAZ100-262100-
MARINE

STATION/POSITION TIME  TEMP    WIND        PRES    WAVE   SWELL
                       AIR SEA DIR/SP/G            HT/PER HT/PER
                 (UTC) (F)     (DEG/KT/KT) (MB)    (FT/S) (FT/S)
BRANDYWINE LGT   1900   58 40  190/ 24/ 28 1007.1F
CAPE MAY NJ      1900   57 43  180/ 18/ 26 1007.5F
LEWES DE         1900   63 41  190/ 14/ 22 1007.4F
15NM E FENWICK I 1950   48 40              1007.8F   5/ 7
OCEAN-CITY-INLET 1900   47 40  210/ 15/ 18 1009.1F
WACHAPREAGUE VA  1900   55 49  220/ 12/ 17 1008.9F
THOMAS POINT MD  2000                        N/A
COVE POINT MD    1900   49     180/ 17/ 18 1005.8F
SOLOMONS ISLAND  1900      46                N/A
BISHOPS HEAD MD  1900   55 51  170/ 13/ 18 1006.8F
PINEY POINT MD   1912          190/ 14/ 15   N/A
CAMBRIDGE MD     1900   64 42  170/ 10/ 14 1006.2F
LEWISETTA VA     1900   65 49              1005.7F
RAPPAHANNOCK LGT 1900          190/ 13/ 14 1008.7F
STINGRAY PT      2000   53 44  170/ 12/ 14   N/A     1
YORK RVR RNG VA  1900   60     200/ 17/ 19 1007.6F
YORKTOWN VA      1900   64 46  190/ 10/ 14 1007.6F
DOMINION TERM VA 1900   59     210/ 10/ 12 1008.9F
KIPTOPEKE VA     1900      49  190/ 11/ 12   N/A
CHES BAY BRIDGE  1900   66 45  180/ 13/ 17 1008.2F
CAPE HENRY VA    1900   70     180/ 13/ 22 1007.2F
WILLOUBY STN VA  1900   60     230/ 16/ 17 1009.4F
S CRANEY ISL VA  1900          210/  9/ 14 1008.8F
CAPE HENRY BUOY  1928      43                N/A     6/ 7
1ST LANDING BUOY 2000   59     210/ 10/ 12 1007.7F   2/ 4
OFFSHORE WE BUOY 1911      40                N/A     7/ 8   2/11
64NM E OF VA BCH 1950   62 54  170/ 21/ 25 1008.8F   7/ 8   5/ 8
DUCK PIER NC     1900   68 43  180/ 23/ 28 1008.6F
44056 DUCK FRF   1911      44                N/A     5/ 7
OREGON INLET NC  1900   65 56  170/ 23/ 30 1010.3F
HATTERAS NC      1900   69 57  170/ 21/ 30 1011.9F
CAPE LOOKOUT NC  2000   67     190/ 14/ 17 1011.6R
$$


USA.gov is the U.S. government's official web portal to all federal, state and local government web resources and services.